Home   Weather   USA   Atqasuk   Past weeks
Flag for USA

Past Weather in Atqasuk, Alaska, USA — Yesterday and Last 2 Weeks

Currently: 33 °F. Partly sunny. (Weather station: Post Rogers Memorial Airport, USA). See more current weather

Past Weather in Atqasuk — Graph

°F

Atqasuk Temperature Yesterday

Maximum temperature yesterday: 36 °F (at 4:53 pm)
Minimum temperature yesterday: 33 °F (at 7:13 am)
Average temperature yesterday: 34 °F

High & Low Weather Summary for the Past Weeks

 TemperatureHumidityPressure
High52 °F (Sep 8, 11:53 am)97% (Sep 10, 1:53 am)29.93 "Hg (Sep 10, 1:53 am)
Low33 °F (Sep 5, 5:53 am)62% (Sep 6, 4:53 pm)29.43 "Hg (Sep 4, 1:53 pm)
Average37 °F88%29.66 "Hg
* Reported Sep 2 8:53 pm — Sep 17 8:53 pm, Atqasuk. Weather by CustomWeather, © 2021

Note: Actual official high and low records may vary slightly from our data, if they occured in-between our weather recording intervals... More about our weather records

Atqasuk Weather History for the Previous 24 Hours

Scroll right to see more
 ConditionsComfort  
Time TempWeatherWind HumidityBarometerVisibility
8:53 pm
Fri, Sep 17
33 °FPartly sunny.7 mph75%29.60 "Hg10 mi
8:22 pm33 °FCloudy.8 mph82%29.59 "Hg10 mi
7:53 pm33 °FLight snow. Mostly cloudy.8 mph85%29.59 "Hg8 mi
7:43 pm33 °FLight snow. Fog.9 mph85%29.59 "Hg3 mi
7:28 pm33 °FLight snow. Fog.10 mph85%29.59 "Hg1 mi
6:53 pm34 °FMostly cloudy.8 mph82%29.59 "Hg9 mi
4:53 pm34 °FLight snow. Fog.14 mph85%29.58 "Hg2 mi
3:53 pm34 °FLow clouds.15 mph85%29.57 "Hg10 mi
2:53 pm34 °FLight snow. Fog.17 mph88%29.56 "Hg1 mi
12:53 pm34 °FLight snow. Fog.16 mph92%29.56 "Hg1 mi
11:53 am35 °FLight rain. Fog.14 mph88%29.56 "Hg1 mi
11:27 am34 °FLight snow. Fog.10 mph88%29.56 "Hg1 mi
11:13 am34 °FLight snow. Fog.10 mph88%29.55 "Hg1 mi
10:53 am34 °FLight snow. Fog.10 mph88%29.56 "Hg1 mi
10:27 am34 °FFog.10 mph92%29.55 "Hg1 mi
9:53 am34 °FFog.10 mph92%29.55 "Hg1 mi
9:31 am34 °FFog.12 mph92%29.55 "Hg1 mi
8:53 am34 °FLight rain. Fog.13 mph92%29.55 "Hg1 mi
8:24 am34 °FLight rain. Fog.13 mph92%29.55 "Hg1 mi
7:53 am34 °FLight rain. Fog.13 mph92%29.56 "Hg2 mi
7:34 am34 °FLight rain. Fog.13 mph92%29.55 "Hg3 mi
7:20 am34 °FDrizzle. Fog.14 mph92%29.55 "Hg2 mi
6:53 am35 °FDrizzle. Fog.14 mph88%29.56 "Hg2 mi
5:53 am35 °FLight rain. Fog.12 mph88%29.56 "Hg3 mi
4:53 am35 °FLight rain. Fog.10 mph88%29.57 "Hg5 mi
4:11 am35 °FLight rain. Fog.7 mph88%29.57 "Hg3 mi
3:53 am34 °FLight rain. Fog.3 mph92%29.57 "Hg5 mi
3:01 am34 °FLight rain. Fog.6 mph92%29.58 "Hg3 mi
2:26 am34 °FLight snow. Fog.5 mph92%29.58 "Hg2 mi
2:18 am34 °FLight snow. Fog.6 mph92%29.58 "Hg2 mi
2:01 am34 °FFog.6 mph92%29.58 "Hg2 mi
1:31 am35 °FFog.7 mph88%29.58 "Hg2 mi
1:10 am35 °FLight rain. Fog.6 mph88%29.58 "Hg4 mi
1:00 am35 °FLight rain. Fog.7 mph88%29.58 "Hg5 mi
11:53 pm
Thu, Sep 16
35 °FLight rain. Fog.5 mph88%29.59 "Hg4 mi
11:30 pm34 °FLight rain. Fog.3 mph92%29.60 "Hg3 mi
11:18 pm34 °FLight rain. Fog.3 mph92%29.60 "Hg2 mi
10:53 pm34 °FLight snow. Fog.5 mph88%29.60 "Hg5 mi
10:00 pm35 °FLight rain. Mostly cloudy.6 mph88%29.61 "Hg10 mi
Weather by CustomWeather, © 2021

See weather overview